Terminal Aerodrome Forecast
Issued by NWS Omaha/Valley, NE

Home | Current Version | Previous Version | Graphics & Text | Print | Product List | Glossary On
Versions: 1 2 3 4 5 6 7 8 9 10 11 12 13 14 15 16 17 18 19 20 21 22 23 24 25 26 27 28 29 30 31 32 33 34 35 36 37 38 39 40 41 42 43 44 45
000
FTUS43 KOAX 121123
TAFOFK
TAF
KOFK 121123Z 1212/1312 VRB04KT P6SM VCSH SCT050 BKN150
     FM121300 07006KT P6SM BKN150
     FM121900 02011KT P6SM SCT050 BKN150
     FM130400 30005KT P6SM SCT150=

USA.gov is the U.S. government's official web portal to all federal, state and local government web resources and services.